This demonstration page uses our WeatherBlox Daily Observations layout. Learn more.

Left ArrowRight Arrow

41.55636, -103.73856

Hourly Observations for July 28, 2020

Temp ( °F °C ) Dew Point ( °F °C ) Humidity (%) Winds ( mph kmh ) Pressure ( in mb ) Visibility ( mi km ) Precip ( " mm )
6:58 pm 18:58 Clear 84 29 50 10 31 31 S 15 24 29.96 1015 10 16 0.00 0.00
7:58 pm 19:58 Clear 80 26.9 51 10.7 36 36 S 16 26 29.99 1016 10 16 0.00 0.00
8:58 pm 20:58 Clear 76 24.4 54 12.3 47 47 S 18 30 29.99 1016 10 16 0.00 0.00
9:58 pm 21:58 Clear 74 23.1 56 13.3 54 54 S 20 31 30.00 1016 10 16 0.00 0.00
10:58 pm 22:58 Clear 72 22.4 56 13.4 57 57 S 23 37 29.98 1015 10 16 0.00 0.00
11:58 pm 23:58 Clear 71 21.4 57 13.7 62 62 S 24 39 29.98 1015 10 16 0.00 0.00
12:58 am 00:58 Clear 70 20.9 57 14.1 65 65 S 21 33 29.97 1015 10 16 0.00 0.00
1:58 am 01:58 Clear 69 20.5 57 14 66 66 SSW 21 33 29.95 1014 10 16 0.00 0.00
2:58 am 02:58 Clear 68 19.8 57 13.9 69 69 SSW 16 26 29.95 1014 10 16 0.00 0.00
3:58 am 03:58 Clear 66 19 57 14 73 73 SSW 17 28 29.94 1014 10 16 0.00 0.00
4:58 am 04:58 Clear 65 18.6 57 14.1 75 75 SSW 16 26 29.94 1014 10 16 0.00 0.00
5:58 am 05:58 Sunny 64 17.8 57 13.9 78 78 SSW 15 24 29.94 1014 10 16 0.00 0.00
6:58 am 06:58 Sunny 66 19 57 14.1 73 73 Calm 29.96 1014 10 16 0.00 0.00
7:58 am 07:58 Sunny 73 22.9 58 14.3 58 58 SSW 12 19 29.94 1014 10 16 0.00 0.00
8:58 am 08:58 Sunny 78 25.3 55 12.5 45 45 S 16 26 29.94 1014 10 16 0.00 0.00
9:58 am 09:58 Sunny 80 26.9 53 11.7 39 39 SSW 15 24 29.94 1014 10 16 0.00 0.00
10:58 am 10:58 Sunny 82 28 51 10.5 34 34 S 18 30 29.93 1014 10 16 0.00 0.00
11:58 am 11:58 Sunny 85 29.2 50 10.1 30 30 S 20 31 29.92 1013 10 16 0.00 0.00
12:58 pm 12:58 Sunny 87 30.3 50 10.1 29 29 SSE 15 24 29.90 1012 10 16 0.00 0.00
1:58 pm 13:58 Sunny 86 30.1 51 10.3 29 29 SSE 15 24 29.89 1012 10 16 0.00 0.00
2:58 pm 14:58 Mostly Sunny 87 30.6 45 7.3 23 23 SSW 10 17 29.87 1011 10 16 0.00 0.00
3:58 pm 15:58 Sunny 84 28.9 47 8.4 28 28 SSW 14 22 29.87 1012 10 16 0.00 0.00
4:58 pm 16:58 Partly Cloudy 76 24.2 48 9 38 38 W 12 19 29.90 1013 10 16 0.00 0.00

Powered by AerisWeather